Temp
23 24 24 24 24 25 24 24 24 24 24 24 24 25 25 25 26 26 26 26 26 26 26 26 26 26 26 26 26 26 26 26 26 25 25 25 25 25 25 25 25 24 24 23 23 23 23 23 23 23 23 24 24 24 26 27 27 27 27 26 27 26 26 26 26 27 27 27 27 27 27 27 27 27 27 27 26 25 25 25 24 24 24 24 24
23 24 24 24 24 24 24 24 24 24 24 24 24 24 24 25 25 25 25 25 25 25 25 26 26 25 26 26 26 26 26 25 25 25 25 25 25 25 25 25 25 25 24 23 23 23 23 23 23 23 23 24 24 25 27 27 27 27 27 27 27 27 26 26 26 26 27 27 27 27 27 27 27 27 26 26 26 25 25 25 24 24 24 24 25
23 23 23 23 23 23 23 24 24 24 24 24 24 24 24 25 25 24 25 25 24 24 25 25 26 25 25 25 26 26 25 25 25 25 25 25 25 25 25 25 25 25 25 24 23 23 23 23 23 23 24 24 24 25 27 27 27 27 27 27 27 27 27 26 26 26 26 27 27 27 27 27 27 26 25 24 25 24 24 25 25 24 24 24 24
23 23 23 23 23 23 23 23 23 23 23 23 24 24 24 24 24 24 24 24 24 24 25 25 25 25 25 25 25 25 25 25 25 25 25 25 25 25 25 25 25 25 25 25 24 23 23 23 23 24 24 24 25 25 26 26 26 26 26 27 27 27 27 26 26 25 26 27 27 27 27 27 26 25 24 24 24 24 24 24 24 24 24 24 24
23 22 22 23 23 23 23 23 23 23 22 23 23 23 23 23 23 23 23 23 24 24 24 25 25 25 24 24 25 25 25 24 24 24 24 24 24 24 24 24 25 25 25 25 25 24 23 23 24 25 25 25 25 25 26 26 26 26 26 26 26 26 26 26 25 24 25 26 26 26 26 27 26 24 24 24 24 24 24 24 24 23 24 24 24
23 22 22 23 23 23 23 22 23 23 22 22 23 23 23 23 23 22 22 23 23 23 24 24 24 24 24 24 25 25 24 24 24 24 24 24 24 24 24 24 24 25 25 25 24 24 24 24 24 24 24 24 25 25 25 26 26 26 26 26 26 26 26 25 25 24 25 25 25 24 24 25 25 24 23 24 24 24 24 24 23 23 23 23 24
23 23 23 23 23 23 22 22 22 22 22 22 23 23 22 22 22 22 22 22 22 23 23 23 23 24 24 24 24 24 24 24 24 24 24 24 24 24 24 24 24 24 24 24 24 24 24 24 24 24 24 24 24 24 24 25 25 25 25 25 25 25 25 25 24 23 24 24 23 23 22 22 23 22 22 23 23 23 24 24 24 24 23 23 23
23 23 23 23 23 23 22 22 22 22 22 22 22 22 22 22 22 22 22 22 22 22 23 23 23 23 23 23 24 24 24 24 24 24 24 24 24 24 24 24 24 24 24 24 24 24 24 24 24 24 24 23 23 23 23 23 24 24 24 25 25 24 24 24 23 22 23 24 23 23 23 21 21 22 22 22 22 22 22 23 24 24 23 23 22
23 23 23 23 23 23 22 22 22 22 22 22 22 22 22 22 22 22 22 22 22 22 22 22 22 23 22 22 23 23 24 24 24 24 23 23 24 24 24 24 24 24 24 24 24 24 24 23 24 24 24 23 23 23 22 23 23 23 23 23 24 23 23 23 23 22 22 22 22 23 23 22 21 21 21 21 22 22 21 21 23 23 23 23 23
22 23 23 23 23 22 22 22 22 22 22 22 22 22 22 22 22 22 22 22 21 21 22 22 22 22 22 22 22 22 23 23 23 24 23 23 23 23 23 24 23 23 24 24 24 24 24 23 24 23 23 22 22 22 22 22 23 22 23 23 22 22 22 22 22 21 21 21 21 21 23 23 22 21 21 21 21 21 21 21 22 23 23 23 23
22 22 23 22 22 22 22 22 21 21 22 21 21 21 21 22 22 22 22 21 21 21 21 21 21 21 21 21 21 21 22 22 22 23 23 23 23 23 23 23 23 23 23 23 23 24 24 24 23 23 23 22 22 22 22 22 22 22 22 22 22 22 22 21 22 22 21 21 20 20 22 23 22 21 21 21 21 22 21 21 22 23 23 23 23
22 22 22 22 22 22 22 22 21 21 21 21 21 20 20 21 21 21 22 22 21 21 21 21 21 21 21 21 21 21 21 21 21 22 23 22 22 23 23 23 23 23 23 23 23 23 23 23 23 22 22 22 22 22 22 22 22 22 22 22 22 22 21 21 22 21 21 20 20 20 22 23 22 21 21 20 20 22 22 21 21 22 22 22 22
22 22 22 22 22 22 22 22 21 21 21 20 20 20 20 20 20 21 21 21 21 21 20 20 20 20 20 20 20 21 21 21 21 21 22 22 21 22 22 23 23 23 23 23 23 23 22 22 21 22 22 22 22 22 22 22 22 22 22 22 22 21 21 21 21 21 21 21 20 21 22 22 21 21 21 20 20 21 21 20 20 21 22 22 22
22 22 22 22 22 22 22 22 21 21 20 20 20 20 20 20 21 21 21 21 21 21 20 20 20 20 20 20 20 20 21 21 21 21 21 21 21 21 22 22 23 23 22 22 22 22 22 22 22 22 22 22 22 22 22 22 22 22 22 22 22 22 22 22 21 21 21 21 21 21 22 22 21 21 21 21 21 21 20 20 20 21 22 22 22
22 22 22 22 22 22 22 22 22 21 21 21 20 20 20 21 21 21 21 20 20 21 20 19 19 20 20 20 20 20 20 20 21 21 21 21 20 20 21 22 23 23 22 22 22 22 22 22 22 22 22 22 21 21 22 22 22 22 21 22 22 22 22 22 21 21 21 21 21 21 21 21 21 21 21 21 21 21 20 20 21 21 21 22 22
22 22 22 22 22 21 21 21 22 22 21 21 21 20 21 21 21 21 20 20 20 20 20 20 19 20 20 20 19 20 20 21 21 21 21 21 20 21 22 22 23 22 22 22 22 21 21 22 21 21 22 22 21 21 21 22 21 21 21 22 22 22 22 21 21 21 21 21 21 21 21 21 21 21 21 21 21 21 21 21 21 21 22 22 23
20 21 22 22 22 21 22 22 22 21 21 21 21 21 22 22 21 20 20 20 20 20 20 20 20 20 20 20 20 20 20 20 21 21 20 20 20 20 21 22 21 21 21 21 21 21 21 21 21 21 22 22 21 21 21 21 21 21 22 22 22 23 22 22 21 21 21 21 21 21 21 21 21 21 21 21 21 20 20 21 22 22 22 23 24
19 19 21 22 22 22 22 22 21 21 20 20 20 21 22 22 22 20 20 20 20 20 20 20 20 20 20 20 20 20 20 20 20 20 20 20 20 20 21 21 21 20 20 20 20 21 21 21 21 21 21 21 21 21 21 21 20 21 22 22 22 23 23 22 21 21 21 21 21 21 21 21 21 21 20 21 21 20 20 21 22 22 22 23 24
19 19 20 22 22 22 21 21 21 20 20 20 20 21 21 22 22 21 20 20 20 20 20 20 20 20 20 20 20 20 19 20 20 19 19 19 19 20 20 21 21 21 21 21 21 21 21 21 21 20 21 21 20 21 21 20 20 21 22 22 23 23 22 21 21 21 21 21 21 21 21 20 20 20 20 20 20 20 21 21 21 21 22 23 23
20 19 20 22 22 21 21 21 20 20 20 20 20 20 20 21 22 21 20 20 20 20 20 20 20 20 20 20 19 19 19 19 19 19 19 19 19 19 20 20 21 21 21 21 22 22 22 21 21 20 20 20 20 20 20 19 20 20 20 21 22 22 21 21 21 20 20 21 21 20 20 20 20 20 20 20 20 20 20 20 21 21 21 22 22
19 19 20 21 21 21 21 21 21 21 20 19 20 20 20 21 21 20 20 20 20 20 20 20 20 20 20 20 19 19 19 19 19 19 19 19 19 19 19 20 20 21 21 22 22 23 23 22 20 19 19 19 19 19 19 19 19 19 19 19 20 20 20 20 20 20 20 20 20 20 20 21 21 21 21 21 20 20 20 20 20 20 20 21 21
20 20 20 21 21 21 21 21 21 21 20 19 19 20 20 21 21 21 21 20 20 20 20 20 20 20 20 20 19 19 19 19 19 19 19 19 19 19 19 20 20 21 21 22 22 23 22 21 20 19 18 18 18 18 18 19 19 19 19 19 19 20 20 20 20 20 20 20 20 21 21 21 21 21 21 20 19 19 19 19 19 19 19 20 20
20 21 21 21 21 21 21 20 20 20 20 20 20 20 20 21 21 21 21 21 20 20 20 20 20 20 20 19 19 19 19 19 19 19 19 19 19 19 19 19 19 20 20 21 21 21 21 19 18 18 17 17 18 18 19 19 19 18 19 19 19 19 19 19 20 20 20 20 20 21 21 21 21 21 20 19 18 18 18 18 18 18 19 19 19
20 20 21 21 21 21 21 20 20 20 20 19 19 20 20 21 21 21 21 21 21 21 21 20 20 20 20 19 19 19 19 18 18 19 19 19 19 19 19 19 19 19 19 20 20 19 19 18 18 17 17 18 18 19 19 19 19 18 18 18 18 19 19 19 19 19 19 20 20 21 21 21 20 20 19 18 18 18 18 18 18 18 18 18 19
20 19 20 20 21 21 21 20 20 20 20 19 19 19 20 21 21 21 21 22 22 21 21 21 21 20 20 20 19 19 19 18 18 18 18 18 18 18 18 18 18 18 19 19 19 18 18 17 17 17 18 18 18 18 18 18 18 18 18 18 19 19 19 19 19 19 20 20 20 20 20 19 19 18 18 17 17 17 17 17 17 17 17 17 17
20 18 18 19 20 20 21 21 20 20 19 19 19 20 20 21 21 21 22 22 22 22 22 22 22 21 21 20 20 20 19 19 18 18 18 18 18 18 18 18 18 18 18 18 18 17 17 17 17 18 18 18 18 18 18 18 18 18 18 19 19 19 19 19 19 20 20 20 20 19 18 18 18 18 17 17 18 18 17 17 17 17 17 17 17
21 20 19 19 18 18 20 21 21 20 20 20 21 21 21 21 21 22 23 23 23 22 22 23 23 22 22 21 21 20 19 19 19 18 17 18 18 18 18 17 17 17 17 17 17 17 17 17 17 17 17 17 17 18 18 18 18 18 18 19 19 20 19 19 19 19 20 20 19 19 18 17 17 17 17 17 18 18 18 18 18 18 18 18 18
22 21 20 19 18 18 19 20 21 21 21 21 21 21 21 22 22 23 23 23 23 23 23 23 23 23 23 22 21 21 20 19 19 18 18 18 18 18 18 17 17 17 18 18 17 17 17 17 17 17 17 18 18 18 18 19 19 19 19 20 20 20 19 19 19 19 19 19 19 18 18 18 18 17 17 18 18 18 18 18 18 18 18 18 18
21 21 21 19 18 18 18 19 20 21 21 21 21 21 21 22 23 23 23 24 24 23 24 24 24 24 24 23 22 21 21 20 20 19 19 19 19 19 19 19 18 18 18 18 18 18 18 18 18 18 19 19 19 20 20 20 20 20 20 21 21 20 20 20 20 19 19 19 19 19 19 19 18 18 18 18 17 18 18 18 18 18 18 18 18
21 22 22 20 18 18 19 19 19 20 21 21 21 21 21 22 22 22 22 23 23 23 23 23 24 24 25 24 23 22 22 22 21 19 19 19 19 19 19 19 19 19 18 18 18 18 19 19 20 20 20 20 20 21 21 21 21 21 21 20 20 21 21 21 21 20 19 19 19 19 19 19 19 19 18 18 18 18 18 17 17 18 18 18 19
21 22 22 20 19 18 18 18 19 19 19 20 21 21 21 22 22 22 22 22 22 22 22 23 23 23 23 23 23 22 22 22 21 20 19 19 18 18 18 18 18 18 18 18 18 20 20 21 21 21 21 21 21 21 21 21 21 22 22 21 21 21 21 21 21 21 20 19 19 19 19 20 20 20 19 19 18 18 18 18 18 18 18 19 19
20 21 21 20 20 19 18 18 18 18 18 19 20 21 22 22 22 22 22 22 22 22 22 22 22 22 22 22 22 21 21 21 20 20 19 19 19 18 18 18 18 18 18 18 19 21 22 22 22 22 22 22 22 22 22 22 22 22 22 22 22 22 22 21 21 21 21 21 20 20 20 20 20 20 19 18 18 19 19 19 19 18 19 19 19
20 20 20 20 20 19 19 18 18 18 18 19 20 21 21 22 23 22 22 22 21 21 21 21 21 21 20 21 21 20 20 20 20 20 19 19 19 18 18 18 18 18 17 18 19 21 22 22 22 22 22 22 22 22 22 22 23 22 23 23 23 23 22 21 20 20 21 21 21 21 21 20 20 19 19 19 19 19 20 20 20 19 19 19 19
20 20 20 20 20 19 18 18 18 19 18 18 19 20 21 22 22 23 23 22 21 21 21 20 20 20 20 20 20 20 20 20 20 20 20 19 19 19 18 18 18 17 17 18 20 21 22 22 22 22 22 22 23 22 22 22 23 23 23 23 23 23 22 21 20 21 21 21 21 22 22 21 20 20 20 20 20 20 20 20 20 20 20 20 20
21 20 19 19 19 19 19 18 19 19 18 18 18 19 20 20 21 22 23 23 22 22 21 21 20 20 19 19 19 19 19 20 20 20 20 19 19 19 18 18 17 17 17 18 19 21 22 22 22 22 22 22 22 23 23 22 22 22 23 23 23 23 23 22 21 21 21 22 22 22 21 21 20 20 20 21 21 21 21 21 21 21 20 20 21
21 21 21 20 20 19 19 19 19 19 19 19 19 19 19 20 19 19 21 22 23 23 23 22 21 20 19 19 19 19 19 19 19 19 19 19 19 19 19 18 19 19 18 18 19 20 21 22 22 22 22 22 22 22 22 22 22 22 22 22 23 23 23 22 22 21 21 22 22 21 21 20 21 21 21 21 21 21 21 21 21 21 21 21 21
21 22 22 21 20 20 19 19 19 19 19 19 19 19 19 19 19 18 18 21 23 23 23 22 20 19 18 18 18 19 18 18 19 19 19 19 19 19 19 20 21 22 21 21 21 21 21 22 22 22 22 22 22 22 22 22 22 22 22 22 22 22 22 22 22 21 21 22 22 21 21 21 21 21 21 21 21 21 22 22 21 21 20 20 20
22 22 21 21 20 20 20 19 19 19 19 19 19 19 19 20 20 19 19 21 23 23 23 22 21 20 19 19 18 19 18 18 18 17 17 18 18 18 19 20 22 22 23 23 22 22 22 22 22 22 22 22 22 22 22 22 22 22 22 21 21 21 21 21 21 21 21 21 22 22 21 21 21 21 21 21 21 22 22 22 22 21 21 19 19
21 21 21 20 20 20 20 20 19 19 19 19 19 19 20 20 21 20 21 22 22 22 21 22 22 22 21 20 19 19 18 17 17 17 17 18 18 18 19 20 22 22 23 23 23 22 22 22 22 22 22 22 22 22 22 22 22 22 22 22 22 21 21 21 21 21 21 21 22 22 21 21 21 21 21 21 22 22 22 22 22 22 22 21 21
21 21 21 20 20 20 20 20 20 20 20 20 20 20 20 20 21 21 22 22 22 22 22 22 23 23 22 20 19 19 19 19 20 20 19 19 18 19 19 21 22 22 22 22 23 23 22 22 22 22 21 21 21 21 21 22 22 22 22 22 22 22 22 22 22 22 22 22 22 22 22 22 22 21 21 21 22 22 22 22 22 22 22 22 22
22 21 21 20 20 20 20 20 20 20 20 20 20 20 20 20 20 21 22 22 22 23 23 23 23 23 22 20 19 19 20 21 23 23 22 22 21 20 21 21 22 22 22 22 23 23 23 23 22 22 22 21 21 21 21 21 21 22 22 22 22 22 22 22 22 22 22 22 22 22 22 22 22 22 22 22 22 21 21 22 22 22 22 22 22
21 22 21 20 20 20 21 21 20 19 20 20 20 20 21 21 21 21 22 22 22 22 23 23 23 23 21 20 19 19 19 21 23 23 23 23 23 22 22 21 22 22 22 23 23 23 22 22 22 22 22 21 21 21 21 21 21 22 22 22 22 22 22 22 23 22 22 22 22 22 22 22 22 22 21 21 21 21 21 22 22 22 22 22 22
20 21 21 21 20 20 21 21 20 19 19 19 19 19 20 21 21 21 21 21 22 22 23 23 23 22 21 20 19 18 18 21 23 23 23 23 23 23 22 22 22 22 22 22 22 22 22 22 22 22 22 22 21 21 21 21 21 22 22 22 22 22 22 22 23 23 22 22 22 22 22 22 22 22 21 21 21 22 22 22 22 22 22 22 22
19 19 19 19 19 19 19 20 20 20 19 19 19 19 20 21 22 22 22 22 22 22 23 23 23 22 21 20 19 18 19 21 22 22 22 22 22 22 23 23 23 22 22 22 22 21 21 22 22 22 22 21 21 21 21 21 21 21 22 22 22 22 22 22 22 23 23 22 22 22 22 22 22 22 22 22 22 22 22 22 22 22 22 22 22
18 18 18 18 19 19 19 19 19 19 19 19 19 19 20 21 22 22 22 22 22 22 22 23 23 22 21 20 19 19 20 21 21 21 21 22 22 22 23 23 22 22 22 22 22 21 21 21 21 21 21 21 21 21 21 21 21 21 22 22 22 22 22 22 22 22 22 22 22 22 22 22 22 22 22 22 22 22 22 22 22 22 22 22 22
18 18 18 18 18 19 19 18 18 18 18 18 19 19 19 20 22 22 22 22 22 22 22 22 22 22 22 22 21 21 21 21 21 21 21 22 22 22 22 22 22 22 22 22 22 21 20 20 20 20 20 20 21 21 21 21 21 21 21 21 21 22 22 22 22 22 22 22 22 22 22 23 23 22 22 22 22 22 22 22 22 22 22 22 22
19 19 18 18 18 18 18 18 19 19 18 18 18 19 19 21 22 22 21 21 21 21 22 22 22 22 22 22 22 22 22 22 22 22 22 22 22 22 21 21 21 21 21 21 21 21 20 20 20 20 20 20 20 20 20 20 20 20 20 20 21 21 21 22 22 22 22 22 22 22 22 23 23 22 22 22 22 22 22 22 21 21 21 21 21
19 18 18 19 19 19 19 19 18 18 17 17 17 18 19 20 21 21 21 21 21 21 22 22 22 22 22 22 22 22 22 22 22 22 22 22 22 21 21 21 21 21 21 21 21 21 21 20 20 20 19 19 19 19 19 19 20 20 20 20 20 20 21 21 21 21 21 21 22 22 22 22 22 22 22 22 21 21 21 21 21 21 21 21 21
18 18 19 20 21 21 21 20 19 18 18 18 18 19 20 20 20 20 20 21 21 21 21 21 22 22 22 22 22 22 22 22 22 22 22 22 22 21 21 20 20 20 21 21 21 20 20 20 20 19 19 19 19 19 19 19 20 20 20 20 20 20 20 20 20 20 20 20 21 21 21 21 20 20 20 21 21 21 20 20 20 20 20 21 21
18 18 19 20 21 21 21 21 21 20 21 20 21 21 22 22 21 21 21 21 21 21 21 21 21 21 21 21 21 22 21 21 22 22 22 22 21 21 20 20 20 20 20 20 20 20 20 20 19 19 19 19 19 19 19 19 19 19 19 19 19 19 19 19 19 20 20 20 19 20 19 19 19 19 19 19 20 20 20 20 20 20 20 20 20
18 18 19 19 20 20 21 21 21 21 21 22 22 22 22 22 22 22 22 22 22 22 22 21 21 21 21 21 21 21 21 21 21 21 21 21 21 20 20 20 19 19 19 19 19 19 19 19 19 18 18 18 18 18 18 18 18 18 18 18 18 18 18 18 18 19 19 19 19 18 18 18 18 18 18 18 18 18 19 19 19 19 18 18 18
Height
789 790 791 792 793 793 793 793 795 795 796 797 798 799 800 801 802 803 804 805 806 808 808 809 810 811 812 813 813 814 815 816 818 819 820 820 820 821 820 821 821 822 823 823 823 824 823 824 824 824 825 825 824 823 822 821 821 821 821 821 820 821 821 821 819 817 817 817 817 817 817 817 817 818 818 819 819 819 819 820 820 820 821 821 820
788 789 790 791 791 791 790 791 792 793 794 795 796 797 798 798 799 800 801 803 804 805 806 806 807 808 809 810 811 812 813 814 816 817 817 818 818 818 818 819 819 820 820 820 821 821 821 821 821 822 823 822 821 821 819 819 819 819 819 819 819 818 819 819 819 817 815 815 816 815 815 815 816 816 817 818 818 819 819 819 819 819 820 820 819
785 786 787 788 788 789 790 790 791 792 793 794 794 795 795 796 797 797 798 800 800 801 802 803 804 805 807 808 809 810 811 812 813 814 815 816 816 816 816 817 818 818 818 818 818 818 819 819 819 820 820 820 820 819 818 817 817 817 817 817 817 816 816 817 817 816 815 814 814 813 813 813 814 815 816 817 817 818 818 818 818 818 818 818 818
783 783 784 785 785 786 787 789 790 791 791 792 792 793 794 795 796 795 796 796 797 798 799 801 802 803 804 805 806 807 808 809 811 811 812 813 814 814 815 815 815 815 815 816 816 816 817 817 817 818 818 818 818 817 817 816 816 816 816 815 815 815 814 815 815 815 814 813 812 812 811 811 812 814 815 815 816 817 817 817 817 817 817 817 817
780 780 780 781 781 782 784 785 786 787 788 790 791 792 792 793 793 794 794 794 795 797 798 799 800 801 802 803 804 804 805 806 808 808 810 811 811 812 812 813 813 813 813 814 814 814 815 815 815 816 816 816 816 816 815 814 814 814 814 814 814 813 813 813 813 813 813 812 812 812 811 810 811 813 814 815 815 815 815 816 816 816 816 816 816
778 778 778 778 779 780 780 781 782 783 784 786 788 789 789 789 791 791 792 792 793 795 796 797 798 799 800 800 801 802 803 804 804 805 807 808 809 810 810 810 810 810 811 811 812 812 812 813 813 813 813 813 813 813 813 813 813 813 813 812 812 812 812 812 812 811 812 811 811 811 812 810 810 812 814 814 815 814 814 814 814 814 814 814 814
775 775 775 776 776 777 778 778 779 780 781 781 783 785 786 787 787 787 788 789 790 792 794 795 796 797 798 799 799 800 801 801 802 802 803 805 806 807 807 808 808 808 808 809 809 810 810 810 810 810 811 811 811 811 812 812 812 812 812 811 811 811 811 810 811 811 810 810 810 812 813 811 811 812 813 814 814 814 814 813 813 813 813 813 813
773 773 773 773 774 775 776 776 776 777 778 778 779 782 783 783 783 783 784 785 787 788 790 792 794 795 796 797 797 798 798 799 799 799 800 801 802 803 804 805 805 805 806 806 807 807 808 808 807 808 808 809 809 810 811 811 811 811 811 810 810 810 810 809 809 810 810 810 810 811 811 811 811 811 811 812 813 813 813 813 812 812 812 812 812
772 771 771 771 772 772 773 773 773 773 774 775 777 779 780 780 780 781 781 782 783 785 786 789 790 792 794 795 795 795 795 796 796 796 797 798 799 800 801 801 802 803 803 803 804 805 805 805 805 805 806 807 807 808 809 810 809 809 810 809 809 809 809 808 808 809 810 810 810 810 809 809 809 809 809 810 810 810 811 813 812 811 811 810 810
770 769 769 769 770 770 770 770 770 771 772 773 775 775 776 778 778 779 780 780 781 782 783 785 786 788 791 792 793 793 792 793 793 793 794 795 796 797 798 799 800 800 800 800 801 802 802 802 802 802 803 804 805 806 807 808 807 808 808 808 808 807 807 807 807 808 809 809 810 810 809 808 808 808 808 808 808 808 809 810 809 809 809 808 808
769 769 768 768 768 767 767 768 768 769 770 771 773 774 775 776 777 778 779 779 779 779 780 781 782 784 786 787 790 790 790 791 792 792 792 793 794 795 796 797 797 798 798 798 798 799 800 800 800 800 800 801 802 804 805 805 806 806 806 806 806 806 805 805 805 805 807 808 809 810 809 807 807 807 807 807 806 805 806 806 807 807 807 806 807
768 768 767 767 766 766 766 767 767 767 769 770 772 773 774 776 777 777 777 777 777 777 777 777 778 780 781 783 785 786 787 789 791 791 791 792 793 793 794 795 795 796 796 796 796 797 798 798 798 798 798 799 800 801 802 803 804 804 804 804 804 804 804 804 804 803 805 806 807 807 806 806 806 806 806 805 804 803 804 805 806 806 805 805 805
767 767 766 766 765 765 765 766 766 767 768 770 771 772 774 775 776 776 776 776 775 775 775 775 774 776 778 780 782 783 785 788 790 790 790 790 791 792 792 792 793 794 794 794 795 796 796 797 797 797 797 797 798 799 800 801 801 801 801 801 801 801 802 802 803 803 803 803 803 804 804 805 805 805 804 804 804 803 804 806 806 805 803 803 803
765 765 764 764 764 764 764 765 766 766 767 769 770 771 772 773 774 774 774 774 774 774 773 772 771 772 775 777 779 781 783 786 787 788 788 788 789 789 790 790 791 792 792 792 793 794 794 795 795 795 796 796 797 797 798 799 798 798 799 799 799 799 800 800 801 801 801 801 801 802 803 804 804 803 802 803 803 803 804 806 805 803 802 801 801
763 763 763 762 762 762 763 764 765 765 765 766 766 767 769 770 772 772 772 771 772 771 771 770 769 770 773 776 778 779 781 783 784 786 786 785 786 787 787 788 789 790 790 790 791 792 792 793 793 794 794 794 795 796 797 797 796 796 797 797 798 798 798 798 798 799 800 800 800 801 802 802 802 801 802 803 803 803 804 804 803 801 800 800 799
763 762 761 760 760 760 761 762 763 762 762 762 762 763 764 767 769 770 770 771 771 770 770 770 769 769 771 774 776 777 779 781 782 783 783 783 784 785 786 787 787 787 788 788 789 790 790 791 791 792 792 792 793 794 796 796 796 796 796 796 796 797 797 797 797 798 799 799 800 800 800 801 801 801 802 802 802 803 803 802 801 800 799 798 797
764 764 760 758 758 759 759 760 760 760 759 758 759 760 760 762 765 768 771 771 770 769 769 769 769 769 770 772 773 775 776 777 779 780 780 781 782 783 784 785 785 786 786 787 788 788 789 790 790 791 791 792 792 793 794 795 796 795 795 795 795 795 795 796 796 797 798 799 799 800 800 800 800 800 800 800 800 801 800 799 798 797 797 796 795
764 765 761 758 757 757 758 759 760 759 758 757 758 758 758 759 762 767 771 771 770 769 768 768 768 768 769 770 771 773 774 774 776 778 778 779 781 782 783 783 784 785 785 786 787 788 788 789 789 790 790 790 791 792 792 793 794 794 794 794 793 793 794 795 796 797 798 798 798 799 799 799 798 798 798 798 798 798 798 797 796 796 795 794 793
763 764 762 758 756 757 757 758 759 759 758 757 757 758 759 759 761 765 769 770 770 769 768 768 768 768 769 770 770 772 772 773 774 776 777 778 780 781 782 782 783 784 785 786 787 787 787 788 787 788 788 788 789 790 790 791 792 793 793 792 792 792 793 794 795 796 797 797 797 797 797 797 797 796 796 796 796 796 796 795 795 795 794 793 793
762 763 760 757 756 756 756 757 758 758 758 757 757 759 759 758 759 763 767 769 770 769 768 768 767 768 769 770 770 771 772 772 774 775 776 777 779 780 781 782 783 784 785 785 786 786 787 787 786 786 786 787 787 788 788 789 790 791 791 791 791 792 792 793 794 795 796 796 796 796 796 795 795 795 795 794 794 794 794 794 794 794 793 793 792
761 761 759 756 756 755 755 756 757 757 757 757 757 759 759 758 760 762 765 768 769 769 769 768 768 768 769 770 771 771 772 773 773 775 776 777 778 780 781 782 783 784 784 784 784 784 785 786 785 785 785 785 786 786 787 788 789 790 790 790 791 791 792 793 793 794 794 794 794 794 794 794 793 793 793 793 793 793 793 793 793 793 793 793 792
760 759 756 755 755 754 754 755 756 757 757 757 757 759 759 759 760 762 763 765 767 769 769 769 769 769 769 770 771 772 772 773 774 775 776 777 779 780 782 782 782 783 783 783 783 783 784 785 785 785 785 785 785 786 787 787 788 789 789 790 790 790 791 792 792 793 793 793 792 792 791 791 791 791 791 792 792 792 792 792 792 792 792 792 792
758 756 754 754 753 753 753 754 755 755 756 757 758 759 759 759 760 761 762 763 766 768 769 769 770 770 770 771 772 772 773 774 775 776 777 778 779 780 781 781 782 782 783 783 783 783 784 785 785 785 785 786 786 786 786 787 787 788 788 789 789 789 790 791 792 792 792 791 791 790 790 790 790 790 791 791 791 791 792 792 792 792 792 792 792
757 755 753 753 752 752 752 753 753 754 755 757 758 759 760 760 760 760 761 762 764 767 769 770 771 771 772 772 772 773 774 775 776 776 777 778 779 779 780 781 781 781 782 782 783 784 784 785 785 785 785 786 786 786 786 786 787 787 788 788 789 789 790 790 791 791 791 790 790 789 789 789 789 790 790 791 791 791 792 792 793 793 793 793 793
757 755 754 753 753 752 751 752 752 753 754 755 757 758 760 760 759 759 760 762 763 765 767 769 770 771 772 773 773 773 774 774 775 776 777 777 778 779 779 780 780 781 782 782 783 783 784 784 785 785 785 785 785 785 785 786 786 787 787 788 788 789 790 790 790 790 789 789 789 789 789 789 789 790 790 791 791 792 792 792 793 793 793 793 793
757 756 755 753 753 753 752 752 752 752 753 754 756 757 758 759 759 759 759 760 762 763 765 767 768 769 771 771 772 772 773 773 774 775 776 777 777 778 779 779 779 780 781 781 782 783 783 784 784 784 784 784 784 785 785 785 786 786 787 787 788 788 789 789 789 788 788 788 788 789 789 789 789 790 790 791 791 792 792 792 792 792 793 793 793
757 756 754 753 754 755 754 752 751 752 753 754 755 756 756 757 758 757 757 759 760 762 763 765 766 767 768 769 770 771 771 772 773 774 775 776 777 777 778 778 779 780 780 781 782 782 783 783 783 783 783 783 784 784 784 785 785 785 786 786 787 787 787 787 787 787 787 787 787 788 789 789 789 790 790 790 791 791 792 792 792 792 792 793 792
757 755 753 752 754 755 755 754 752 752 752 753 754 754 755 755 756 755 755 757 758 760 761 763 764 765 766 767 768 769 770 771 771 772 774 775 776 777 778 778 779 779 780 781 782 782 783 783 783 783 783 783 783 783 784 784 784 784 785 785 785 786 786 786 786 786 786 786 786 787 787 788 788 789 789 790 790 791 791 791 791 792 792 792 791
757 755 753 751 752 754 754 753 753 752 752 753 753 754 754 754 754 754 755 756 757 758 760 761 762 763 763 764 766 766 767 768 769 771 772 773 774 776 776 777 778 779 779 780 781 782 782 782 782 782 782 782 782 782 782 783 783 783 784 784 784 785 785 784 784 785 785 785 785 785 786 786 787 787 788 788 789 789 790 790 790 790 791 791 790
756 755 753 751 751 752 752 751 752 753 753 753 753 753 753 753 753 753 754 755 756 757 758 759 760 760 761 762 763 763 764 765 766 769 771 772 773 774 775 776 777 777 778 780 780 781 781 781 781 781 781 781 781 781 781 782 782 782 783 784 784 784 783 783 783 783 784 784 783 783 784 784 784 785 785 786 787 787 788 788 788 789 789 789 789
756 755 753 751 750 751 751 751 751 752 753 753 753 753 753 753 753 753 754 755 756 757 758 759 760 760 761 761 761 762 762 763 765 767 769 771 772 773 774 775 776 777 778 779 780 779 779 779 779 779 779 779 779 780 781 781 781 781 781 782 783 783 783 782 782 782 783 783 783 783 782 782 782 783 783 784 785 785 786 786 786 787 787 787 787
756 756 755 752 750 750 750 751 750 751 752 753 753 752 752 752 753 754 754 755 756 758 759 760 761 761 761 761 761 761 762 763 764 766 768 770 771 772 773 775 776 777 778 779 778 778 777 777 777 777 777 778 778 779 779 780 780 781 781 781 781 782 782 782 782 783 783 782 782 783 782 782 782 782 783 784 784 784 784 784 784 785 785 785 786
755 755 755 753 751 750 750 750 750 751 752 752 752 752 752 752 753 754 755 756 758 758 760 761 761 762 762 761 761 761 762 763 764 766 767 768 770 771 772 773 774 775 777 777 777 776 775 775 775 775 775 776 776 777 778 778 778 779 780 780 780 781 781 782 782 783 782 782 782 782 782 782 783 783 784 784 784 783 783 783 783 784 783 783 784
753 754 754 753 753 752 751 751 750 749 750 751 751 752 752 752 754 755 755 757 758 759 760 761 761 762 762 762 761 762 762 763 764 765 766 767 768 769 771 772 773 774 774 775 774 773 772 772 773 773 774 774 774 775 776 777 777 778 778 779 779 779 780 781 782 783 782 781 781 781 780 781 782 782 782 782 782 782 782 782 782 783 783 782 782
752 752 752 752 752 753 753 753 751 750 750 751 752 753 753 753 755 756 756 756 757 758 758 759 760 761 761 762 762 762 762 763 764 765 766 766 767 769 770 771 772 772 772 772 772 771 770 770 771 771 772 773 773 773 774 775 776 776 777 778 778 779 779 780 781 781 781 780 780 779 780 780 780 780 780 780 780 781 781 781 781 782 782 782 782
750 750 750 750 751 751 752 753 752 751 752 753 753 754 754 754 755 757 758 756 755 755 756 757 758 759 761 761 761 761 762 763 763 764 765 765 766 767 768 769 769 769 769 770 769 769 769 769 769 770 770 771 772 772 773 773 774 775 776 777 777 778 778 778 779 780 780 779 779 778 779 779 779 778 778 778 778 778 778 779 779 780 781 781 781
748 748 747 748 749 749 749 750 751 750 751 752 753 753 754 753 754 758 760 757 753 752 753 753 755 757 759 760 760 761 761 762 762 763 763 764 765 766 767 767 766 766 766 767 767 767 767 767 767 768 768 769 770 771 771 772 773 774 775 776 776 776 777 777 777 778 779 778 777 778 778 778 778 778 777 777 777 777 777 777 777 778 779 780 780
746 746 746 747 747 747 748 748 749 749 749 750 751 752 752 752 753 756 758 755 750 750 751 751 752 755 756 757 758 759 759 760 761 761 762 762 762 763 763 764 763 763 763 764 765 765 765 765 765 766 766 767 768 769 770 771 772 773 774 775 775 776 776 776 776 777 777 777 776 776 776 776 776 776 776 776 776 776 775 775 775 776 777 778 778
744 744 744 745 746 746 746 746 747 747 748 749 749 750 750 751 751 752 752 750 749 750 751 751 751 752 753 754 755 757 758 759 760 760 760 760 760 760 761 761 761 761 761 762 762 763 763 763 764 764 764 765 766 767 768 769 770 771 772 773 773 774 774 775 775 775 776 775 774 774 774 774 774 774 775 775 775 774 774 775 774 774 774 774 775
741 742 742 743 744 745 745 745 745 746 746 747 747 748 748 749 749 749 749 748 747 748 749 749 749 750 751 752 753 755 757 757 757 758 758 758 758 758 759 759 759 759 759 760 760 761 761 761 762 762 763 764 765 765 766 767 768 769 770 771 771 771 771 772 772 772 773 773 772 772 772 772 772 772 773 773 773 773 773 773 773 773 772 772 772
739 739 740 741 742 743 743 743 743 744 744 745 745 746 746 747 747 747 746 746 746 746 746 747 748 749 750 751 752 754 755 755 754 754 754 755 756 756 757 757 757 758 758 758 758 758 759 759 760 761 761 762 763 764 764 765 766 766 767 768 768 769 769 769 769 769 769 769 770 770 770 770 770 770 770 770 771 771 771 771 771 771 771 771 770
736 737 738 739 740 741 741 741 742 742 742 742 743 744 745 744 745 745 745 745 745 746 746 746 747 748 749 750 751 753 753 752 752 751 751 752 753 754 755 755 755 756 756 756 756 756 756 757 757 758 759 760 761 762 762 763 763 764 764 765 765 765 765 765 765 765 766 766 766 767 767 767 768 768 768 768 768 769 769 768 768 768 768 768 768
735 735 735 737 738 739 739 740 741 741 740 740 741 743 744 743 742 743 743 744 745 745 745 745 746 747 748 749 750 751 751 751 751 750 750 750 751 752 752 753 753 753 753 753 753 753 753 754 755 755 756 757 758 759 760 760 760 760 761 761 761 762 762 762 762 762 763 763 764 764 765 765 765 766 766 766 766 766 766 765 766 766 766 766 765
735 736 736 736 737 738 738 738 739 740 740 740 741 743 742 741 740 741 741 742 743 743 743 744 744 745 746 747 749 750 750 750 749 749 749 750 750 750 750 750 750 750 751 751 751 751 751 751 752 753 753 754 754 755 755 756 756 757 757 757 758 758 759 760 760 760 761 761 761 762 762 763 763 763 763 763 764 763 763 762 762 763 763 763 763
735 737 738 737 736 736 737 738 738 739 741 742 743 742 741 740 739 739 739 740 741 741 742 742 743 744 745 745 747 748 748 748 749 749 749 749 748 748 748 747 748 748 748 748 748 749 748 748 749 750 750 751 751 751 752 753 753 754 754 755 755 755 756 758 758 759 759 759 759 759 759 759 759 759 759 760 760 761 760 760 760 760 760 761 760
734 736 738 738 737 736 735 737 738 738 739 741 742 742 742 740 738 738 738 739 739 740 741 741 742 743 743 744 745 745 746 747 747 748 747 747 747 746 746 745 746 746 746 746 746 746 746 746 746 746 747 747 748 749 749 750 751 751 751 751 752 752 753 754 755 756 756 756 756 756 756 756 756 756 756 757 757 757 757 758 757 757 758 758 758
733 734 736 737 738 736 735 735 736 737 738 739 741 742 741 740 738 738 738 738 738 739 740 740 740 741 742 743 744 744 745 745 745 745 745 745 744 744 744 744 743 744 744 744 744 744 745 745 745 745 745 745 746 746 747 747 748 748 748 748 748 748 749 749 750 751 752 753 753 753 753 753 753 753 754 755 756 756 756 756 756 756 756 756 756
732 733 733 733 734 734 734 734 735 736 737 738 739 740 740 738 738 738 738 737 738 738 739 739 739 740 742 743 743 744 744 744 744 744 743 743 742 742 742 742 742 742 742 742 742 742 743 743 743 743 744 744 745 745 745 746 746 746 746 746 745 745 746 747 747 748 749 750 750 751 751 751 751 752 752 753 754 754 755 755 755 755 754 754 754
731 732 731 730 730 730 730 731 733 735 735 737 738 737 736 736 736 737 737 737 737 737 738 739 739 740 742 743 743 743 744 744 743 742 742 741 741 741 741 741 741 741 741 741 741 741 741 741 742 742 742 743 743 744 744 744 745 745 745 745 744 743 744 745 745 746 746 748 749 749 749 749 750 750 751 751 751 752 752 752 753 753 753 752 752
731 730 730 729 728 728 728 729 730 731 732 733 733 733 733 733 734 734 735 735 736 736 737 738 739 740 741 742 742 742 742 742 741 740 740 740 740 740 740 740 740 740 740 740 740 740 740 740 741 741 742 742 743 743 743 743 743 743 743 742 742 742 743 743 743 743 744 746 747 747 747 747 748 748 749 749 749 749 749 749 749 750 750 750 750
730 730 730 729 729 728 728 729 729 730 730 730 731 731 731 732 732 733 734 735 735 736 737 738 738 739 740 741 741 741 741 740 740 739 739 739 739 739 739 740 739 739 740 740 739 739 739 740 740 740 741 741 742 742 742 741 740 740 740 740 740 741 741 742 742 742 742 743 744 745 745 745 746 746 747 747 747 747 747 747 747 748 748 748 749
Wind_Speed
18 18 19 20 19 17 17 17 18 17 17 17 17 17 17 17 17 17 16 15 15 16 16 16 16 16 15 15 15 15 15 14 13 13 14 14 14 15 14 12 12 13 13 13 13 13 13 14 14 14 14 13 14 16 14 13 12 12 12 11 12 12 11 12 11 10 11 10 10 10 10 9 8 8 9 9 10 11 11 11 11 11 10 10 11
16 17 17 16 17 17 17 17 18 17 17 17 17 17 18 18 18 17 16 16 15 15 16 17 17 17 17 17 16 16 15 14 14 14 14 14 14 15 14 13 13 14 14 14 15 14 14 14 14 14 14 14 16 16 15 13 13 12 12 12 13 13 12 13 13 12 11 10 10 11 10 9 9 7 7 8 8 9 10 11 11 11 10 10 10
16 16 15 15 16 17 16 15 15 15 16 17 17 19 19 19 18 18 18 17 17 17 17 17 18 18 18 17 17 17 16 15 15 15 15 15 15 15 14 14 14 15 15 15 16 16 15 15 16 16 15 16 17 16 15 14 14 13 13 13 13 14 13 13 13 12 13 12 11 11 11 10 9 7 5 5 7 7 8 10 10 10 10 9 9
15 15 15 15 16 16 16 15 13 14 16 16 17 17 16 16 16 16 18 18 18 18 17 17 18 18 18 18 18 18 18 16 16 16 16 16 16 16 15 15 15 15 15 15 15 16 16 17 17 17 16 16 15 15 15 15 14 14 14 13 13 14 13 12 12 13 13 12 11 11 12 10 7 6 4 4 5 6 7 8 9 9 10 10 9
15 15 15 15 15 16 16 16 16 17 18 18 15 15 15 16 15 16 19 18 17 16 16 16 16 17 17 18 18 19 19 18 17 17 17 17 16 16 16 16 16 16 16 15 14 14 15 17 17 16 16 15 15 15 16 15 14 13 13 12 12 13 13 12 13 13 12 13 12 11 12 11 8 6 5 5 5 6 7 7 8 10 10 10 10
14 15 16 16 17 17 16 17 18 19 19 18 16 15 17 17 15 16 17 18 16 15 15 15 16 17 18 18 19 19 19 18 18 18 17 16 16 16 16 16 17 16 16 16 15 15 16 16 16 16 16 17 16 16 15 14 14 13 12 12 12 12 12 12 12 12 12 12 12 12 14 12 7 5 4 4 6 6 7 8 9 9 10 10 10
13 14 16 17 18 18 17 18 19 18 17 18 19 18 17 16 16 16 16 16 16 15 15 15 16 17 17 18 19 19 19 18 18 18 17 16 16 16 16 17 16 16 16 16 16 16 16 16 16 16 17 17 16 16 16 14 13 12 12 11 11 11 12 12 12 13 12 11 12 14 15 12 7 5 4 4 6 7 7 8 9 9 9 10 10
12 13 14 16 17 16 15 16 17 17 17 19 20 19 17 17 18 17 17 18 19 18 18 17 17 18 17 18 18 18 19 18 18 18 17 17 16 16 16 16 16 16 15 16 16 16 16 16 17 17 17 16 16 17 16 13 11 11 11 10 10 9 10 11 12 13 11 10 11 12 11 9 8 9 8 6 6 7 9 10 9 8 8 8 9
11 13 14 15 15 14 13 13 14 15 16 18 19 17 17 18 18 17 18 19 19 20 20 19 19 18 18 19 18 19 20 20 19 19 18 17 16 16 16 15 15 15 15 15 15 15 15 15 17 18 17 16 17 18 17 14 12 12 10 8 8 8 9 11 12 12 12 12 12 12 9 7 7 8 9 10 9 8 9 10 9 8 8 8 8
11 13 13 13 13 14 13 12 13 14 15 17 17 18 18 18 17 17 18 17 16 17 19 21 21 21 21 21 20 20 20 21 20 20 19 17 15 15 14 14 14 15 15 14 14 14 15 15 17 17 17 17 17 16 16 16 15 15 13 10 9 8 9 10 11 11 11 11 12 13 12 9 7 7 9 11 12 10 10 11 10 9 8 8 8
12 12 12 13 13 14 12 11 12 14 15 16 16 16 17 17 16 17 18 17 15 15 18 21 23 24 25 25 23 23 22 21 20 20 20 18 15 13 12 13 13 14 14 13 13 13 14 14 15 16 16 17 16 14 14 15 15 16 16 14 13 13 11 10 11 11 10 8 9 11 12 11 8 9 11 13 13 11 11 11 11 9 9 9 7
12 11 11 11 12 12 12 12 13 14 14 14 13 12 13 14 15 15 16 16 14 14 16 19 22 25 26 26 26 24 22 21 20 18 19 20 18 15 12 12 13 12 12 12 11 12 13 14 16 16 14 13 13 12 12 12 13 14 14 15 15 15 14 13 13 11 9 9 9 11 12 10 8 9 12 13 12 10 9 9 10 10 10 9 7
12 10 9 9 9 10 11 12 13 13 11 11 10 9 10 11 12 13 13 12 12 14 15 17 20 23 23 24 25 23 20 19 19 18 18 20 21 19 15 13 12 11 10 10 10 12 14 15 14 13 11 10 11 12 10 10 12 12 13 14 15 15 15 15 15 15 13 11 10 10 10 9 8 10 10 10 9 7 6 10 13 12 10 7 6
11 10 9 9 9 10 10 11 12 10 8 6 6 7 8 9 11 11 11 10 12 13 14 15 18 20 20 20 22 23 21 18 17 18 19 19 19 19 17 15 12 11 10 10 11 13 13 12 11 11 12 11 11 12 11 11 12 11 11 13 13 13 14 14 15 15 14 13 12 12 11 9 8 8 7 8 9 7 6 11 13 10 7 6 6
10 10 9 8 8 8 9 10 10 8 6 5 4 4 5 7 9 10 9 10 12 12 13 14 15 18 20 20 20 21 19 16 16 17 18 18 18 17 16 15 13 11 11 10 10 11 10 10 11 13 13 12 12 12 11 10 11 11 11 12 12 12 12 12 12 12 11 12 12 12 11 8 6 5 5 7 9 8 8 10 10 7 7 7 7
10 10 9 9 7 7 7 8 8 6 6 7 7 5 3 5 9 11 11 12 12 12 12 11 11 14 18 19 18 17 16 15 16 17 17 17 17 15 14 14 12 12 12 11 9 9 9 8 9 11 10 10 10 10 9 9 10 11 11 11 12 11 10 10 10 10 9 8 8 8 9 7 6 7 6 7 8 7 8 10 9 8 9 9 9
12 12 9 8 6 5 6 6 7 8 8 8 8 7 5 4 8 12 14 14 12 12 12 11 10 11 14 16 16 14 13 14 16 17 16 16 16 14 13 12 10 10 11 9 7 7 8 8 8 8 9 8 8 8 8 9 11 12 13 12 12 11 9 8 7 7 6 6 7 9 11 11 11 11 11 10 10 8 9 10 10 9 9 9 9
12 15 12 6 4 5 5 6 7 8 7 7 8 9 9 7 6 10 14 16 15 13 12 10 10 11 12 13 13 12 11 13 15 15 15 16 16 13 11 11 10 9 8 7 7 7 8 9 8 8 8 8 7 8 10 10 10 11 13 14 12 10 9 7 5 4 5 7 8 11 13 13 13 13 12 12 11 10 11 12 11 10 10 11 10
9 13 12 7 4 4 6 6 7 8 9 8 8 9 10 8 7 9 14 16 15 12 10 10 9 10 10 10 10 10 10 11 12 13 13 14 13 11 10 11 10 9 8 8 9 9 8 8 10 11 11 11 11 12 12 10 8 9 12 13 12 9 6 4 3 4 7 9 10 12 12 12 11 10 10 10 11 11 12 13 12 11 11 11 10
10 12 11 6 4 5 6 7 7 9 10 9 9 9 10 9 8 9 11 12 11 10 9 9 8 8 8 7 8 8 8 10 11 11 11 13 13 12 11 10 9 9 9 9 9 9 9 9 11 13 14 15 15 13 10 8 7 6 7 7 7 5 3 3 4 7 10 12 13 13 12 12 12 10 10 11 11 10 9 10 10 10 10 11 10
12 12 10 6 5 6 6 7 7 7 8 8 8 8 8 8 10 11 10 9 8 7 7 8 7 7 8 7 7 7 8 11 13 13 12 13 13 12 9 8 8 8 9 9 9 10 11 8 8 11 13 12 11 10 8 8 6 3 2 3 5 6 7 7 7 8 11 12 12 12 11 11 11 11 11 10 8 6 6 7 7 8 9 9 9
11 12 10 7 6 6 7 7 7 6 5 6 7 7 7 9 11 12 10 9 8 8 8 8 8 7 8 7 7 7 9 11 12 13 13 12 11 10 8 7 8 8 8 10 11 12 10 6 6 10 10 7 7 7 7 5 3 2 4 6 7 9 9 7 6 8 9 9 9 9 9 9 10 9 7 5 4 6 7 6 5 6 7 6 6
11 12 10 8 6 7 7 7 6 5 5 5 6 7 8 10 10 10 11 12 11 10 9 8 7 5 6 7 7 8 10 11 11 12 12 11 10 9 8 7 6 5 6 8 8 8 6 5 6 7 6 5 5 4 3 2 2 3 6 6 6 6 4 3 4 5 6 6 7 7 7 7 7 5 4 2 2 4 5 4 3 4 5 5 4
10 12 11 8 7 8 8 7 6 5 5 5 6 6 8 10 10 10 12 13 12 11 9 9 8 7 7 8 8 9 10 11 12 13 12 10 9 8 6 5 5 5 6 6 5 5 6 6 6 5 4 4 3 3 3 3 3 4 3 2 2 1 1 3 4 5 6 7 7 6 5 4 3 1 3 3 1 1 1 1 1 1 1 2 2
9 12 13 10 8 8 8 7 6 5 5 6 7 8 9 10 11 12 14 14 13 12 11 10 10 10 10 10 10 10 10 11 13 14 13 10 8 6 4 4 4 5 6 6 7 8 7 6 5 4 3 3 3 3 3 3 3 3 2 1 1 2 3 4 4 4 5 5 3 2 2 2 2 2 3 3 3 3 2 2 1 1 1 0 0
8 10 14 12 8 7 7 7 7 7 6 7 9 10 10 11 12 14 15 14 13 13 12 11 11 11 10 11 12 12 12 11 12 13 13 11 9 7 5 3 4 6 7 7 8 9 7 5 4 4 4 4 4 3 4 4 4 4 2 1 2 3 3 3 4 5 4 2 1 1 1 2 3 3 3 4 4 3 2 3 2 2 2 2 2
7 7 12 12 8 7 7 7 8 8 8 9 11 12 12 13 14 15 15 14 14 13 12 11 12 12 12 12 12 13 13 13 12 12 12 12 10 9 7 5 5 7 8 7 7 7 5 5 5 4 3 4 6 7 6 6 6 6 5 4 3 4 3 3 4 5 4 2 2 3 3 3 4 4 3 3 4 4 4 4 4 3 3 3 4
7 6 9 10 7 8 8 7 7 8 9 11 12 13 14 16 16 16 15 14 13 13 12 12 12 12 12 12 13 13 13 14 14 13 12 12 11 10 8 7 6 7 8 8 7 6 5 4 4 5 4 5 7 8 8 7 7 7 7 6 5 4 4 4 5 5 4 4 4 4 5 4 4 4 4 4 5 4 4 4 4 4 5 5 6
7 6 7 7 6 7 7 7 7 8 9 10 11 12 14 15 15 14 14 13 13 12 11 11 13 14 13 12 13 13 13 15 16 15 14 14 12 11 10 9 9 9 10 9 8 7 7 6 6 6 7 7 8 9 9 8 8 8 7 6 6 5 5 5 6 6 6 6 7 7 7 7 6 6 6 6 6 5 5 5 5 5 6 7 7
7 5 4 5 5 6 7 8 8 9 9 9 10 12 14 13 12 10 10 12 13 12 10 8 9 11 12 12 14 14 13 15 17 15 13 14 14 13 12 11 11 11 11 10 9 7 8 8 7 7 7 8 8 8 8 8 8 8 8 7 7 6 6 6 6 6 7 8 8 8 8 8 8 8 8 7 7 6 5 5 5 5 6 7 6
7 4 4 6 6 6 7 7 7 8 8 8 10 12 12 12 12 11 9 11 13 13 12 9 8 10 10 10 13 13 11 13 16 14 12 13 15 14 14 14 13 12 11 10 9 7 7 7 7 7 8 8 8 8 8 8 8 8 7 8 8 7 6 6 6 6 7 8 7 8 8 8 8 8 8 7 7 7 6 5 6 6 6 5 5
6 4 4 6 7 7 6 6 6 7 6 7 9 11 10 11 12 12 11 12 13 13 13 12 12 13 12 9 11 12 12 13 15 15 13 14 15 15 14 15 15 13 11 10 8 7 7 7 7 6 7 7 7 7 7 8 8 8 8 7 7 7 6 5 5 5 6 6 6 7 7 7 6 6 6 6 7 7 7 6 5 5 5 5 5
6 6 4 4 5 7 8 8 7 6 6 8 9 9 8 10 12 13 13 14 14 15 16 15 14 15 14 12 12 15 15 16 17 17 16 15 15 16 16 15 15 15 13 10 8 7 7 6 6 6 6 7 7 7 7 8 7 8 8 7 6 6 5 3 3 5 5 4 4 5 5 5 5 5 6 6 6 6 6 6 5 5 5 4 4
6 6 6 5 4 5 8 10 9 8 9 10 9 8 7 8 11 12 13 14 15 16 18 19 18 17 16 15 15 16 17 18 19 19 18 16 15 16 17 17 17 16 15 12 9 7 7 7 6 6 7 7 7 7 7 8 7 7 8 7 6 6 5 3 3 6 6 4 5 5 5 5 6 6 6 6 6 5 5 5 5 4 4 3 3
7 6 7 7 6 5 6 8 10 10 11 11 9 9 8 9 10 11 13 15 16 16 17 19 21 21 19 19 18 18 18 19 19 18 17 16 15 15 15 16 15 16 16 15 11 9 8 7 7 7 8 8 8 8 8 8 8 8 8 7 7 7 6 6 6 7 6 6 6 5 5 5 7 7 7 7 6 6 5 5 4 3 3 3 3
8 7 7 7 7 5 5 6 9 11 11 11 10 10 11 12 11 13 16 16 16 16 15 15 18 21 22 21 20 20 19 19 19 18 17 16 15 15 14 13 12 13 14 14 13 11 10 9 7 7 8 8 9 9 8 9 9 9 9 8 8 8 8 8 8 8 8 8 7 6 6 7 7 7 7 8 7 6 6 5 4 4 3 2 2
8 7 6 6 6 6 5 6 7 8 9 9 8 9 11 13 13 16 21 21 17 16 15 13 14 17 19 20 21 21 20 19 18 18 17 16 16 16 14 11 10 11 11 12 12 12 11 10 9 8 8 8 9 9 9 9 9 10 10 9 8 8 8 8 8 9 10 9 8 7 8 8 8 8 8 7 7 7 7 6 6 5 4 3 2
10 8 7 6 5 6 6 6 6 6 7 8 9 10 11 12 13 17 22 20 15 13 12 11 12 13 14 16 18 19 18 18 17 17 17 18 19 19 17 12 10 10 9 9 10 10 10 10 10 9 9 9 9 10 10 10 10 10 10 10 10 10 10 9 8 9 11 10 9 9 9 9 9 9 9 8 8 8 8 7 7 7 7 7 6
11 10 10 8 7 7 7 7 7 7 8 9 10 11 11 13 14 16 17 15 12 12 12 11 12 12 11 13 17 18 16 15 15 15 17 20 21 20 17 13 11 11 10 9 9 9 9 9 9 9 9 9 9 10 10 10 10 10 10 11 11 11 12 12 11 11 12 12 11 10 10 11 11 10 10 10 10 9 9 8 8 8 8 8 8
11 10 10 9 8 7 7 7 7 8 9 10 11 11 12 14 14 14 14 13 12 12 12 11 11 9 9 11 15 16 14 13 13 14 15 16 17 17 15 13 12 11 10 9 9 9 9 8 8 8 9 9 9 10 10 11 11 11 11 12 12 12 12 13 13 13 12 12 12 11 11 11 12 12 12 12 12 11 11 10 10 10 9 9 9
12 10 10 9 8 7 7 7 7 8 8 8 8 10 11 12 12 11 11 10 10 10 10 9 8 8 9 10 11 12 11 11 11 12 11 12 12 12 12 12 11 10 9 9 9 9 8 8 8 8 8 9 9 10 10 11 12 12 12 13 14 14 14 14 14 14 14 13 12 12 12 12 12 13 13 14 13 12 12 12 11 11 11 11 10
13 12 11 11 10 9 8 7 7 8 9 7 6 9 10 10 9 9 8 8 8 8 8 9 7 7 8 9 9 9 9 9 9 9 9 10 10 10 10 11 11 10 10 9 9 9 8 8 8 8 8 8 8 9 10 11 12 14 14 15 15 15 15 15 15 15 15 14 14 13 13 12 12 13 13 14 14 14 14 13 13 12 12 12 12
13 13 12 10 9 9 9 7 6 8 8 6 6 10 10 8 7 8 7 7 8 8 8 8 7 7 8 8 7 7 8 8 8 8 9 9 9 9 10 10 10 11 11 10 9 9 9 8 8 8 8 9 9 9 10 11 13 15 16 17 17 17 17 17 16 16 15 15 15 14 13 13 13 13 14 14 15 16 15 14 14 14 14 14 13
12 11 10 10 9 10 10 8 7 7 7 6 7 10 10 7 6 7 7 7 7 7 7 7 6 7 8 8 6 6 7 8 8 8 8 8 8 8 8 8 9 10 10 10 9 9 8 8 9 9 9 10 10 11 12 13 14 16 17 18 19 19 18 17 16 15 14 15 15 15 15 15 15 15 15 15 15 16 16 15 15 15 15 15 15
12 10 9 12 14 13 11 9 8 8 9 9 8 9 10 9 7 6 6 5 5 5 5 5 5 5 6 7 7 7 6 6 6 7 8 8 8 8 7 7 8 9 10 10 9 8 8 7 8 8 9 10 11 12 13 14 14 15 17 18 19 19 18 17 17 16 15 15 15 15 15 16 16 17 17 16 16 17 17 16 15 15 14 15 16
10 9 8 11 14 13 10 10 10 11 11 12 12 10 11 10 7 5 5 4 3 3 4 5 5 5 5 5 6 6 6 6 7 7 7 7 7 6 6 6 6 7 8 9 9 8 8 8 8 9 10 11 12 13 13 13 14 15 17 18 19 20 19 18 18 17 17 17 16 16 16 16 16 17 16 16 17 17 17 16 15 15 14 15 15
9 8 8 10 13 13 12 12 11 10 11 13 15 14 12 9 5 4 4 3 3 3 4 4 4 4 4 4 5 6 6 7 7 7 7 6 6 6 6 6 6 6 7 7 8 8 8 8 8 9 9 10 11 12 13 14 14 15 16 18 19 20 20 20 19 18 18 17 17 17 17 17 17 16 15 16 17 17 17 16 16 16 15 15 15
9 10 11 11 12 13 13 13 12 11 11 13 17 17 14 9 7 5 5 4 4 4 3 3 3 3 4 4 5 5 6 6 6 5 5 5 5 5 5 5 5 5 6 7 7 7 7 8 8 8 9 10 11 12 13 14 14 14 15 16 18 20 22 22 20 18 17 17 16 17 18 18 17 16 15 14 14 15 15 16 16 16 16 16 15
8 9 10 10 9 8 8 9 11 13 13 14 16 15 12 10 8 8 7 6 5 5 4 4 4 3 3 4 4 4 5 5 5 5 4 3 3 2 2 3 4 4 5 6 6 5 6 7 8 8 8 9 10 11 13 14 14 13 14 15 17 19 22 23 22 20 18 15 13 14 15 15 14 13 14 14 13 13 15 15 15 16 17 17 17
7 8 8 8 7 7 6 5 5 7 8 9 9 8 7 6 7 7 6 6 6 7 7 6 5 3 3 3 4 3 4 4 4 4 3 3 3 3 2 2 2 4 5 5 5 5 6 6 7 7 8 8 10 11 12 12 12 13 14 15 16 17 19 22 24 24 22 17 13 12 12 12 11 11 12 13 13 15 16 15 15 15 15 14 12
7 7 7 7 6 6 5 5 5 6 6 5 5 5 5 4 4 4 4 4 4 4 4 4 3 2 1 1 2 3 4 5 5 6 5 5 4 4 3 3 3 3 4 5 5 4 4 5 5 5 5 6 6 7 8 10 12 13 14 15 15 16 17 19 20 21 22 20 16 11 8 7 8 8 8 8 10 13 12 10 8 8 7 5 5
Wind_Direction
219 221 219 217 217 214 212 215 220 220 221 223 225 228 230 230 230 230 231 233 233 234 233 229 227 230 232 231 228 227 224 224 224 221 222 226 230 237 239 232 226 225 227 228 228 227 229 233 236 238 241 245 251 258 259 255 253 251 250 249 247 246 244 246 254 259 257 254 252 249 239 233 235 239 242 239 235 240 236 225 228 235 234 237 246
218 223 223 221 219 214 211 215 219 220 222 226 228 229 230 229 227 224 226 229 230 232 233 231 230 230 232 233 231 231 227 223 224 225 225 226 227 231 235 234 231 228 227 228 227 227 229 233 236 238 241 243 247 253 255 255 255 254 253 252 251 247 241 241 250 259 260 254 251 251 241 234 239 237 236 240 235 233 233 226 225 229 231 233 238
213 220 222 223 225 224 222 222 220 219 223 228 231 232 231 229 224 219 220 223 225 229 231 232 233 232 232 233 232 234 230 222 222 225 225 224 225 230 234 234 234 233 232 229 228 229 231 233 236 239 240 242 246 251 255 256 258 259 258 256 256 254 247 243 246 254 261 259 253 252 244 233 234 232 224 232 233 232 235 233 229 230 233 236 238
213 215 220 224 224 227 228 226 224 227 230 232 235 237 237 235 230 223 222 223 225 230 231 231 235 234 231 231 230 230 227 222 221 224 225 224 224 227 231 233 235 236 238 236 231 230 234 236 238 240 240 242 246 251 256 257 256 257 259 259 259 259 256 252 249 250 258 262 258 256 254 243 230 222 219 229 232 232 239 242 238 237 238 240 242
219 216 220 225 225 227 227 222 224 229 233 236 238 237 235 235 235 234 233 232 231 233 234 232 233 232 229 230 230 227 223 220 221 223 225 226 225 226 227 230 233 235 238 240 236 231 231 233 237 240 240 241 245 250 254 255 256 256 258 259 258 258 259 257 254 252 254 260 261 260 260 254 238 224 225 235 240 237 238 243 243 242 243 243 241
227 225 227 229 228 225 221 219 222 224 226 231 233 234 234 232 234 238 238 237 235 236 236 234 231 230 230 232 231 227 224 223 222 223 225 225 224 225 227 229 231 233 235 236 236 233 231 232 233 234 236 239 244 250 253 254 256 259 259 259 259 261 262 261 260 260 259 262 268 267 262 259 250 232 231 244 254 252 245 243 243 239 242 247 245
232 233 232 232 231 226 222 224 230 229 226 226 227 230 230 225 226 233 234 232 231 231 234 236 236 235 235 236 234 230 228 227 225 222 221 221 221 224 227 229 230 231 232 234 236 236 235 235 234 232 233 236 238 246 254 255 254 257 258 259 260 262 265 266 266 263 259 260 267 266 266 274 281 265 260 268 266 265 261 254 250 242 236 242 248
235 236 236 234 234 232 231 232 232 230 228 228 228 229 227 222 223 228 231 232 232 231 231 235 240 241 240 240 237 232 229 228 226 222 217 216 218 221 225 227 228 229 230 234 237 238 237 238 239 239 237 234 233 239 249 255 254 257 260 259 260 264 269 272 271 271 270 266 262 261 264 278 279 265 263 264 254 257 262 258 256 253 243 239 243
237 236 238 238 236 236 235 232 231 230 228 227 227 227 226 225 225 229 232 234 234 233 232 231 235 239 241 240 238 234 230 229 228 223 218 214 215 218 222 226 228 230 232 236 238 237 238 240 242 242 237 233 233 235 241 247 248 253 262 264 262 262 265 267 269 276 282 278 272 270 269 267 265 256 254 252 245 245 254 256 256 257 253 249 244
241 237 239 241 241 241 237 231 233 234 231 231 232 231 229 227 228 232 234 232 231 232 233 232 232 235 237 237 238 235 232 232 232 227 220 216 214 216 222 226 229 232 235 237 238 239 241 242 243 244 239 236 238 237 240 244 246 248 251 250 246 243 247 254 257 258 264 269 273 275 271 262 255 253 253 253 250 245 245 249 251 247 246 250 245
242 238 237 239 241 242 239 232 233 233 232 235 237 235 233 232 233 236 236 237 236 233 235 235 232 233 235 236 239 237 232 232 234 228 221 218 214 214 222 227 232 236 237 237 238 240 242 242 241 241 240 240 242 243 244 247 248 251 251 246 244 242 241 245 250 250 249 252 260 267 269 266 260 261 260 254 251 246 240 243 246 242 239 243 240
246 241 233 232 232 233 233 230 229 229 230 235 240 243 242 240 241 241 240 241 239 233 235 237 235 236 235 234 236 235 229 229 231 225 222 222 218 217 225 231 234 236 238 240 240 240 243 242 239 239 241 240 238 239 243 249 253 255 255 252 251 250 247 246 250 251 249 248 248 251 258 264 264 261 257 252 250 249 249 257 258 250 247 251 259
249 245 234 231 229 225 226 227 226 225 227 233 243 252 253 248 243 240 238 238 237 236 238 237 233 231 228 228 231 231 228 230 231 225 224 227 224 219 223 231 236 238 238 240 240 240 241 240 236 236 239 237 236 235 233 239 248 253 254 253 252 252 248 244 245 246 246 250 256 256 256 256 259 262 259 259 262 259 263 267 258 247 243 247 257
246 245 237 232 227 221 221 222 222 221 221 230 242 251 259 259 248 240 237 236 239 243 243 240 235 229 226 228 229 225 225 229 226 223 226 227 221 217 219 226 233 237 238 239 240 239 236 231 227 230 233 231 233 234 228 230 237 241 244 246 245 248 248 243 240 241 243 246 253 260 260 253 254 261 259 256 259 257 259 262 257 249 245 247 251
244 245 244 238 225 217 216 214 214 214 209 212 225 236 264 280 273 264 258 249 247 248 245 242 237 229 228 232 226 219 220 220 216 220 226 223 215 213 220 225 228 231 233 233 236 237 232 226 227 234 237 233 226 223 224 234 240 239 241 243 243 243 244 241 235 231 235 242 247 255 261 258 259 268 259 250 252 249 249 255 256 257 254 253 255
258 247 242 238 226 206 203 202 194 191 194 201 214 220 243 299 292 283 275 263 253 247 241 238 230 216 217 224 221 213 212 212 214 221 224 219 213 213 219 223 222 225 227 223 223 229 230 231 234 239 242 242 234 227 227 241 250 251 250 250 249 244 235 232 229 218 219 236 250 264 274 277 276 269 258 253 250 246 251 253 248 246 249 251 252
288 269 250 235 218 192 189 186 168 169 190 207 218 219 209 239 272 274 271 265 252 240 232 226 219 205 204 213 212 205 203 210 218 222 217 210 205 205 210 211 208 212 216 209 206 219 227 232 240 248 253 255 255 253 250 253 261 267 267 264 259 249 228 214 212 211 224 249 269 285 288 286 282 275 269 265 257 247 251 254 249 248 252 254 256
290 276 265 245 213 186 183 181 165 169 192 208 218 221 210 208 232 254 259 257 250 240 228 216 211 204 200 205 205 200 202 210 214 215 211 203 198 198 199 194 194 202 203 197 203 214 222 230 239 248 256 257 257 260 263 264 266 271 274 271 264 253 241 230 222 232 266 285 294 299 296 291 287 282 275 272 265 252 250 255 258 258 255 256 263
279 270 266 257 223 185 179 185 182 185 198 207 215 215 204 194 201 229 245 250 249 243 226 208 201 196 193 196 197 195 200 204 203 203 202 196 190 189 184 179 185 195 195 201 211 212 220 243 253 255 255 252 250 258 264 263 257 266 278 278 267 258 256 258 259 277 293 296 296 295 291 287 286 283 275 272 267 256 251 255 259 260 259 262 266
291 275 269 262 233 203 193 196 194 193 198 203 206 199 187 179 187 209 228 239 245 244 227 208 194 183 183 188 187 186 188 188 186 182 178 174 173 175 176 174 180 192 201 213 224 227 231 242 254 261 262 255 250 251 251 242 239 260 290 292 277 275 306 326 302 294 295 293 289 285 280 278 277 271 266 267 265 256 250 250 255 262 269 273 268
298 282 274 265 236 215 210 207 200 199 202 201 199 192 183 179 181 188 199 212 223 227 217 201 181 163 163 171 171 169 173 177 175 169 163 163 168 174 180 190 199 207 219 228 235 242 241 234 244 263 266 255 241 231 223 221 222 235 268 281 284 295 304 304 296 290 289 287 285 280 274 270 267 260 256 260 262 258 257 259 266 272 274 278 275
301 287 277 266 236 212 212 213 204 203 208 202 197 194 190 187 185 181 177 179 190 196 190 182 171 154 151 159 165 167 171 177 177 172 167 168 175 180 186 206 218 223 236 243 246 250 251 242 246 257 253 232 211 202 203 203 188 208 254 270 283 290 294 293 288 282 279 278 277 275 270 264 261 256 246 244 254 262 262 260 265 270 265 266 279
303 294 285 268 241 211 205 209 205 199 201 199 199 203 199 193 189 179 166 161 169 179 179 173 166 157 155 161 169 176 181 187 189 183 178 180 187 191 197 218 237 241 242 247 247 241 232 214 223 232 218 198 198 197 196 205 234 266 277 280 286 297 299 278 261 259 263 266 265 266 266 266 268 256 220 203 253 266 262 253 251 265 262 250 257
305 298 291 273 249 225 205 200 202 199 198 195 198 208 206 197 192 184 172 166 167 172 176 174 172 174 174 174 180 184 185 192 198 196 191 191 195 198 207 236 254 233 217 223 219 200 189 188 202 210 195 196 217 230 246 265 258 253 261 265 273 293 258 239 241 241 247 255 257 261 271 284 295 251 173 160 155 187 177 156 195 235 247 233 241
313 304 297 284 263 239 212 195 189 190 195 196 197 206 209 203 198 188 178 174 175 175 176 181 185 187 185 185 190 189 181 187 199 201 199 199 198 196 206 246 250 201 185 195 200 197 194 192 196 207 215 221 234 243 241 233 206 194 192 182 185 203 233 251 253 246 249 255 265 302 339 18 62 102 134 139 142 152 150 144 155 160 160 185 243
324 306 295 288 275 249 220 194 183 183 188 193 197 204 210 209 203 194 186 185 186 183 184 191 195 194 192 193 197 193 185 186 195 200 201 200 198 199 206 227 213 178 172 189 201 200 202 207 213 228 234 220 201 190 187 181 181 181 165 162 197 206 222 242 240 236 245 247 150 85 56 87 114 125 136 146 154 164 178 184 184 192 216 227 219
333 309 291 286 279 264 245 212 190 188 192 198 202 205 209 210 206 200 195 193 193 194 195 199 203 204 202 200 197 192 189 191 194 197 199 197 199 205 208 202 184 175 178 190 196 193 196 207 211 215 210 187 180 184 187 189 198 198 186 186 207 210 206 213 217 224 236 227 166 139 129 125 128 134 147 164 172 181 193 196 201 215 218 219 221
337 316 286 273 253 246 248 228 200 192 195 204 208 207 207 210 208 204 201 198 198 199 199 203 212 215 211 205 198 191 191 196 197 196 195 194 195 198 197 189 183 182 183 181 177 177 184 189 187 189 188 180 184 192 196 199 207 211 205 203 209 208 205 201 197 203 215 212 189 166 161 162 156 156 169 181 186 195 201 200 213 226 226 234 242
326 314 286 264 227 216 225 217 204 202 200 204 212 214 213 213 209 206 206 206 207 210 212 215 219 221 217 210 202 199 201 202 200 197 196 196 193 191 192 191 188 188 185 178 172 174 183 189 190 192 196 198 198 201 202 202 208 211 209 210 211 206 204 202 194 193 200 202 198 192 188 186 184 184 189 191 193 201 210 214 224 228 226 239 248
312 318 303 276 242 220 218 207 199 204 207 207 214 218 217 214 211 208 206 207 210 218 231 237 228 222 219 210 204 207 211 204 197 193 194 195 192 192 196 193 189 189 186 180 181 186 191 197 200 200 202 206 208 208 208 208 213 211 205 210 215 209 205 206 200 193 196 201 204 203 200 198 198 197 196 193 194 200 209 212 215 221 231 244 246
301 317 312 292 273 247 229 212 200 205 212 218 223 220 211 208 212 212 208 209 212 217 230 238 228 221 223 211 202 205 204 194 190 190 192 193 190 191 193 192 192 194 187 180 189 202 201 201 204 203 205 211 213 213 214 215 218 216 210 207 209 212 215 210 198 191 195 199 203 205 204 204 205 201 197 196 198 201 202 200 201 212 231 245 241
285 290 296 293 287 276 258 235 214 207 215 231 239 231 213 203 209 212 212 214 214 214 220 226 222 221 223 210 195 193 187 182 186 187 184 184 186 188 189 189 192 196 192 190 202 211 206 207 211 205 206 215 217 216 220 221 219 220 221 215 209 216 222 206 190 199 208 203 201 205 208 210 211 207 202 205 209 207 205 205 207 212 220 227 231
272 274 274 276 280 279 270 254 233 216 214 225 237 243 229 208 207 209 210 215 218 216 216 220 218 215 214 204 193 193 191 187 184 182 179 180 183 186 189 190 193 196 196 199 213 218 211 214 220 213 211 218 219 215 221 226 221 219 224 225 222 222 211 170 178 227 229 215 210 214 212 209 211 211 207 207 211 211 205 201 197 199 206 211 216
262 257 257 259 262 261 255 247 237 229 224 223 231 247 240 218 215 212 204 207 219 223 223 225 223 216 210 204 197 195 193 187 183 182 185 186 187 190 193 196 199 201 201 205 217 225 221 219 221 220 220 224 222 218 219 224 225 224 226 228 230 228 206 172 210 236 230 218 222 224 215 203 199 203 207 207 206 206 202 195 189 188 197 206 204
265 251 246 248 246 237 236 232 222 218 220 221 228 239 230 217 226 230 213 202 207 216 220 222 222 219 213 208 202 197 193 190 188 189 192 195 196 198 198 199 202 205 207 212 220 227 227 223 221 220 220 221 222 220 216 217 220 224 227 226 228 230 224 218 228 232 227 228 229 219 208 205 199 196 196 192 189 191 189 188 189 188 195 211 212
261 252 240 237 235 230 231 221 206 202 206 208 211 223 221 210 218 238 236 219 208 209 210 208 211 216 216 214 212 208 203 200 199 198 200 204 206 204 200 202 207 209 210 215 220 225 229 229 225 223 223 222 222 221 220 219 219 219 224 226 225 226 227 227 229 227 229 235 232 213 208 212 205 198 195 190 189 195 194 190 193 194 197 215 217
254 256 246 234 227 226 233 229 206 194 196 200 201 213 221 213 209 227 236 230 217 212 205 188 189 205 213 216 218 217 214 214 213 211 210 211 210 209 210 216 220 216 213 214 217 219 224 226 223 223 224 222 223 222 221 221 221 218 220 225 229 232 234 233 229 225 228 234 230 217 216 217 208 206 209 204 199 204 205 201 201 198 193 203 232
248 254 252 242 231 226 227 226 214 197 193 199 202 205 215 218 215 223 232 231 223 221 215 190 180 193 203 209 215 217 217 219 219 216 215 214 209 208 212 221 225 222 220 219 216 216 222 224 221 221 222 221 223 224 222 223 224 221 221 223 227 233 238 240 235 228 231 237 234 221 218 218 213 212 217 219 218 220 220 220 219 212 201 200 216
242 243 245 245 243 239 231 220 212 204 196 199 204 205 211 216 217 222 229 230 225 227 226 209 197 196 193 197 206 208 209 212 214 212 213 215 212 211 213 218 222 221 221 222 220 220 225 226 223 223 223 222 223 224 224 225 226 225 225 226 226 228 230 232 231 229 230 235 235 226 220 221 219 216 219 225 227 228 227 229 233 234 228 221 224
239 238 241 241 240 243 242 230 217 210 203 200 203 206 212 217 218 220 226 227 223 221 219 214 209 198 179 181 196 200 200 206 211 209 207 208 210 212 214 217 219 218 217 219 221 224 229 231 229 226 225 224 226 227 227 228 228 226 226 228 231 232 231 229 228 230 230 231 232 229 225 224 222 220 223 227 230 232 235 237 238 241 244 247 248
240 235 231 231 233 238 241 237 229 224 219 213 209 210 213 216 219 222 225 227 227 226 223 223 221 200 181 185 197 203 209 220 222 215 209 207 207 209 214 218 221 220 218 218 219 222 228 232 232 231 228 226 227 228 227 228 231 231 230 229 231 235 236 233 231 230 230 230 230 229 227 225 224 224 227 229 229 232 236 240 242 242 244 248 250
236 232 227 225 226 230 235 237 237 235 230 224 227 232 226 215 212 219 221 222 228 231 228 230 225 202 195 207 212 207 217 237 239 230 226 226 221 218 218 219 220 221 223 224 223 223 224 225 225 228 228 227 229 232 231 230 231 232 234 234 233 233 234 233 232 230 228 229 230 228 227 227 226 228 231 232 231 232 235 238 241 245 247 248 249
239 232 224 217 217 225 232 237 240 243 242 235 233 242 240 222 208 213 213 210 218 223 221 224 218 196 196 221 232 221 222 237 241 236 235 236 233 229 226 223 223 222 222 222 221 219 220 223 226 227 225 222 222 227 231 231 230 231 233 234 234 233 233 233 232 230 228 227 228 228 229 231 231 232 234 234 233 234 237 238 240 244 249 251 251
267 246 225 215 219 228 234 235 237 246 253 246 232 237 244 238 220 216 213 207 213 220 222 226 221 197 187 199 216 221 225 233 237 239 241 241 240 239 238 236 235 233 230 228 225 220 220 226 231 234 231 226 221 222 226 229 230 231 232 233 233 234 234 235 235 234 230 229 229 229 230 234 237 238 238 237 236 237 239 239 240 243 248 252 254
280 270 246 230 227 225 224 228 235 245 256 259 249 242 244 242 231 222 219 213 215 226 233 238 240 222 200 194 195 200 211 222 230 236 240 240 240 244 246 243 240 238 238 239 238 234 230 229 228 230 231 229 228 228 229 231 232 233 234 235 235 235 234 234 235 236 235 234 234 234 234 237 240 242 242 240 238 238 239 241 242 243 245 250 255
274 273 260 239 231 226 221 223 227 229 239 254 261 258 251 246 236 221 216 215 219 238 248 245 241 239 233 225 221 220 222 223 224 229 236 239 239 242 245 242 238 237 239 239 240 243 244 240 233 230 230 233 236 235 233 233 234 234 235 235 235 234 233 232 233 234 235 236 237 237 238 241 243 245 246 245 242 241 241 242 244 246 248 251 256
270 268 262 244 232 226 223 224 226 221 222 236 249 253 251 249 242 222 212 210 216 231 241 243 239 239 240 241 244 247 247 244 239 239 242 244 241 240 240 239 236 236 236 237 240 245 250 252 251 248 246 245 243 238 234 233 234 234 234 234 233 231 229 228 229 231 233 236 239 240 243 245 247 246 246 244 243 244 245 245 247 251 254 256 260
273 270 266 255 240 227 216 210 212 215 218 229 238 240 235 230 229 231 224 212 208 215 229 245 251 250 246 245 245 252 258 260 259 258 259 259 256 250 244 238 238 244 250 251 250 249 253 262 268 269 266 263 257 249 244 242 241 241 240 237 234 231 228 225 225 227 230 235 239 242 244 245 246 247 247 245 243 244 247 248 251 255 259 261 263
276 271 267 262 257 250 233 209 202 205 210 217 225 226 219 210 212 217 215 209 206 206 212 229 242 248 249 248 249 251 256 258 260 264 270 277 284 281 260 246 252 268 276 278 275 270 270 277 283 283 277 271 264 256 251 249 250 252 251 247 242 237 230 224 222 225 228 233 240 244 243 241 239 241 244 243 241 243 247 251 253 256 258 261 264
281 277 274 272 266 262 260 251 232 222 219 218 221 224 221 215 214 212 206 207 211 211 213 223 237 248 253 254 258 264 271 279 291 303 310 315 319 319 312 301 295 293 290 290 290 290 291 292 293 292 287 278 269 264 261 259 257 256 254 250 247 242 236 230 228 228 228 231 237 242 240 238 237 238 239 240 242 246 247 249 253 257 259 263 272
294 282 275 276 273 265 262 261 256 253 250 245 241 240 237 236 236 232 226 231 238 238 237 244 254 259 269 292 310 325 329 329 329 328 327 328 334 340 346 344 328 315 313 316 316 317 319 314 303 299 301 296 284 273 264 256 249 246 246 246 246 245 244 242 239 234 231 231 233 232 229 232 238 243 248 253 255 257 259 259 259 261 263 272 293